Погода в Аркалыке

Хотите узнать прогноз погоды в Аркалыке? Тогда Вам сюда: Погода в Аркалыке

Поиск расширенной информации на нашем сайте:

Полезная информация:

Новости сайта



02.01.2020
Опубликован Долгосрочный прогноз погоды по городам России и ближнего зарубежья на январь 2020 года.
Карты: Прогноз на январь и февраль 2020 года, Сравнение прогнозируемой аномалии приземной температуры воздуха на январь 2020 года по разным моделям.




Погода в Аркалыке - сегодня

Время (UTC), дата Ветер
(°,м/с) 
Видим.   Явления Облачность Т
(°С)
Тd
(°С)
f(%) Тe
(°С)
Pmin
(гПа)
dP
(гПа)
Po
(мм)
O2
(г/м3)
Тmin Tmax R s Состояние
почвы
09 22.10.21 200 (Ю) 11{17}  4000 м  слаб. снег  10/10 300 м 
[Frnb|Ns]
-0.1 -1.2 92 -5  1019.2  -0.9  731  295           
12 22.10.21 210 (ЮЗ) 10{18}  4000 м  слаб. дождь{снег}  10/10 300 м 
[Frnb|Ns]
+0.9 +0.1 94 -4  1020.1  732  294           
15 22.10.21 210 (ЮЗ) 10{17}  н/о  слаб. дождь  10/10 300 м 
[Frnb|Ns]
+2.1 +1.3 94 -2  1021.8  1.8  733  293    +2.1     
18 22.10.21 190 (Ю) 9{16}  н/о  в посл. час дождь  10/10 300 м 
[Frnb|Ns]
+3.3 +2 91 -1  1021.8  0.1  733  292    +2.1     
21 22.10.21 200 (Ю) 9{16}  н/о    10/10 300 м 
[St]
+3.9 +1.3 83 1021.8  0.2  733  291           
00 23.10.21 210 (ЮЗ) 9{15}  н/о    4/0 верхняя 
[Ci sp]
+3.5 +0 78 1021.7  -0.1  733  292           
03 23.10.21 200 (Ю) 10 км    ясно 
+2.3 -0.2 84 -1  1022.5  0.5  734  293           
06 23.10.21 210 (ЮЗ) 10 км    6/6 600 м 
[St]
+5.8 +1.8 75 +3  1023.2  1.2  735  290  +2.1    0.3     
09 23.10.21 210 (ЮЗ) 10 км    6/3 600 м верхняя 
[Sc|Ci sp]
+10.5 +4 64 +8  1022.3  -0.1  735  284           
12 23.10.21 220 (ЮЗ) 10{17}  10 км    ясно 
+11.8 +6.1 68 +10  1022.2  0.1  735  283           
15 23.10.21 210 (ЮЗ) 10{15}  н/о    9/9 600 м 
[Sc diur, vesp]
+10.1 +6.2 77 +8  1024.5  1.9  736  285    +12.3       
18 23.10.21 200 (Ю) н/о    9/9 1000 м 
[Sc diur, vesp]
+8.8 +5.3 79 +7  1025.2  0.5  736  287    +12.3       
21 23.10.21 210 (ЮЗ) н/о    10/10 1000 м 
[Sc]
+7.7 +3.8 76 +6  1025.8  0.5  737  288           
00 24.10.21 210 (ЮЗ) н/о    10/10 1000 м 
[Sc]
+8.2 +1.3 62 +6  1025.9  0.1  737  288           
03 24.10.21 190 (Ю) 10 км    6/6 1000 м 
[Sc]
+7.9 +0 57 +6  1026  0.1  737  289           
06 24.10.21 190 (Ю) 10 км    ясно 
+10.5 -2.7 39 +9  1025.7  0.1  737  286  +7.6         
09 24.10.21 200 (Ю) 10 км    ясно 
+13 -3.8 31 +12  1024.4  -1  736  284           
12 24.10.21 190 (Ю) 10 км    ясно 
+12.2 -5 30 +11  1023.1  -1.3  735  284           
15 24.10.21 200 (Ю) н/о    ясно 
+8.6 -4.7 39 +7  1023.2  -0.4  735  288    +13.4       
18 24.10.21 180 (Ю) н/о    ясно 
+4.1 -3.8 56 +3  1022.8  -1.1  734  292    +13.4       
21 24.10.21 190 (Ю) н/о    ясно 
+3.5 -3.9 58 +2  1021.5  -1.3             
00 25.10.21 190 (Ю) н/о    4/0 верхняя 
[Ci sp]
+4.6 -3.5 56 +3  1020.3  -0.9  733  291           
03 25.10.21 200 (Ю) 10 км    9/6 1000 м верхняя 
[Sc|Ci sp]
+5.9 -2 57 +4  1019.7  -0.5  732  289           
06 25.10.21 200 (Ю) 10 км    4/0 верхняя 
[Ci sp]
+8.7 -3 44 +8  1019  -0.2  732  286  +3.3         
09 25.10.21 180 (Ю) 10 км    3/0 верхняя 
[Ci fib]
+13.9 -1.4 35 +14  1016.4  -1.8  731  280           
Время (UTC), дата Ветер
(°,м/с) 
Видим.   Явления Облачность Т
(°С)
Тd
(°С)
f(%) Тe
(°С)
Pmin
(гПа)
dP
(гПа)
Po
(мм)
O2
(г/м3)
Тmin Tmax R s Состояние
почвы

Для получения пояснительной информации подведите курсор к названию столбца.

ПОГОДА в Аркалыке - архив

Всё, что Вы хотите узнать о погоде в Аркалыке - удобно и подробно!

Выберите нужную дату (начиная с 1 января 2019* года) и нажмите кнопку "Найти".
Будут отображены архивные сводки погоды по пункту Аркалык, начиная с указанной даты.


Отображать данные в формате CSV (для использования в таблицах Excel)


Внимание! Наш архив погоды предназначен исключительно для личного некоммерческого использования в познавательных целях. Если Вам необходимы официальные справки о состоянии погоды (для производственных, юридических, коммерческих и т.п. целей), обращайтесь в органы Росгидромета.

*Примечание: данная дата относится к архиву по метеостанциям СССР (Россия, СНГ, Балтия).
Архив по метеостанциям Зарубежной Европы и Азии (кроме Китая) хранится 10 дней, по другим регионам земного шара (Китай, Африка, Америка, Австралия, Океания) - 1 день.

Аркалык - район местоположения метеостанции


Название, широта, долгота, высота метеостанции:
Аркалык 50.2°ш. 66.8°д. 343 м над ур. моря [Казахстан]

Дополнительная информация

В oтличие oт бoльшинства пoгoдных сайтoв мы публикуем пoдрoбную метеoинфoрмацию в детальнoм прoфессиoнальнoм фoрмате.

Характеристики температуры и влажнoсти вoздуха измеряются на высoте 2 м в тени вдали oт зданий и деревьев.
Скoрoсть ветра измеряется на высoте 10 м (на урoвне рoста челoвека скoрoсть ветра ниже в 1.5-2 раза). Если метеoстанция нахoдится в гoрoде или в лесу, тo скoрoсть ветра занижена на 2-4 м/с пo сравнению с oткрытым местoм. Скoрoсть ветра над акватoриями крупных рек и oзёр, а также на вершинах хoлмoв на 2-5 м/с выше, чем в oбычных услoвиях.
Атмoсфернoе давление в разных тoчках местнoсти мoжет значительнo oтличаться oт давления на метеoстанции, в зависимoсти oт услoвий рельефа (при пoдъёме на 10 м давление пoнижается примернo на 1 мм рт.ст.).